Location: Melbourne
(37.8666°S, 145.1333°E)
Time: 14:22:00
(UTC+11:00)

Daily predictions for brighter satellites

Satellite Brightness Start Highest point End
(mag) Time Altitude Azimuth Time Altitude Azimuth Time Altitude Azimuth
IRS-1A Rocket 4.4 19:30:54 10° SSE 19:36:52 86° ENE 19:42:40 10° NNW
Ariane Rocket 4.3 19:34:24 10° S 19:39:21 47° WSW 19:44:14 10° NW
Cosmos 1943 Rocket 3.0 19:40:02 10° S 19:44:51 29° ESE 19:49:37 10° ENE
Cosmos 773 Rocket 3.9 19:40:45 10° N 19:45:53 77° ENE 19:51:07 10° SSE
Cosmos 1607 4.4 19:40:55 10° SSW 19:46:51 43° SE 19:52:40 10° ENE
SPOT 3 Rocket 3.6 19:43:43 10° SSE 19:48:57 61° ENE 19:54:08 10° N
USA 238 DEB 4.4 19:43:44 10° SSW 19:50:16 37° SE 19:56:43 10° ENE
USA 238 4.4 19:43:49 10° SSW 19:50:21 37° SE 19:56:47 10° ENE
Cosmos 2084 3.8 19:50:10 10° SSW 19:54:59 58° SE 19:59:32 10° NE
Meteor 2-5 Rocket 4.2 19:50:44 10° NNE 19:56:20 44° E 20:01:58 10° SSE
OAO 3 Rocket 4.0 19:52:29 10° NW 19:57:09 41° NNE 20:01:25 12° E
Cosmos 1271 Rocket 2.7 19:55:37 10° S 19:59:33 68° E 20:03:30 10° NNE
MSX 4.1 19:55:55 10° S 20:01:46 76° WSW 20:07:33 10° NNW
Cosmos 1758 4.2 19:59:55 10° SSW 20:03:55 55° W 20:07:50 10° N
Cosmos 292 Rocket 4.0 20:02:04 10° NNW 20:06:52 74° WSW 20:11:42 10° SSE
Cosmos 2112 Rocket 4.2 20:02:49 10° N 20:07:48 49° ENE 20:12:51 10° SSE
SMAP 4.1 20:04:59 10° S 20:09:34 50° WSW 20:14:05 10° NNW
Cosmos 1953 3.3 20:05:51 10° SSW 20:09:53 52° W 20:13:53 10° N
MONITOR-E 4.5 20:09:40 10° S 20:12:54 73° WSW 20:16:04 10° NNW
Cosmos 2016 Rocket 4.3 20:09:41 10° S 20:15:51 45° ESE 20:21:54 10° NNE
CZ-4C R/B 4.5 20:16:42 10° WSW 20:20:58 23° WNW 20:24:58 10° NNW
Cosmos 1707 2.7 20:17:54 10° N 20:21:47 90° N 20:25:44 10° S
Cosmos 389 Rocket 3.0 20:18:29 10° S 20:21:49 37° ESE 20:23:57 18° NE
Meteor 1-29 2.9 20:20:11 10° NNE 20:23:42 73° ESE 20:27:15 10° S
GPS 2-04 Rocket1 3.5 20:20:44 10° W 20:24:26 42° NNW 20:26:54 20° NE
Cosmos 1943 4.3 20:19:10 10° NW 20:24:35 47° WSW 20:30:04 10° S
Cosmos 1484 Rocket 4.1 20:23:58 10° S 20:27:44 43° WSW 20:31:24 10° NW
Meteor 1-16 Rocket 4.2 20:22:37 10° S 20:28:06 61° E 20:33:42 10° NNE
Atlas Centaur 2 3.9 20:21:34 10° NW 20:28:54 34° NNE 20:33:35 20° ENE
Cosmos 2100 Rocket 4.1 20:29:08 10° S 20:35:25 83° W 20:41:41 10° N
Abrixas rocket 4.3 20:32:41 10° WSW 20:35:31 24° SSW 20:37:44 13° SSE
Cosmos 1842 Rocket 3.6 20:31:49 10° S 20:36:22 65° E 20:40:51 10° NNE
OTV 4 0.3 20:36:28 10° W 20:39:23 73° N 20:39:43 62° NE
ORS 1 (USA 231) 4.4 20:37:47 10° WNW 20:40:57 79° NNE 20:41:26 59° E
Cosmos 2056 Rocket 4.2 20:36:44 10° S 20:41:20 31° ESE 20:42:10 30° E
USA 234 4.0 20:39:44 25° E 20:41:51 30° NE 20:47:27 10° N
ATLAS 3B R/B 3.0 20:35:51 10° SW 20:43:12 79° WNW 20:50:47 10° NNE
Aureole 1 Rocket 4.1 20:41:08 10° NW 20:44:26 41° WSW 20:48:36 10° S
NOSS 3-4 (A) 4.1 20:37:22 10° N 20:44:48 49° ENE 20:52:10 10° SE
NOSS 3-4 (C) 4.1 20:37:30 10° N 20:44:54 49° ENE 20:52:16 10° SE
ATLAS 2AS CENTAUR R/B 4.1 20:42:58 10° WNW 20:48:36 32° SW 20:54:01 10° SSE
Cosmos 1680 Rocket 4.2 20:45:47 10° NNW 20:50:53 55° WSW 20:56:05 10° S
Meteor 2-1 Rocket 4.3 20:46:36 10° S 20:52:31 59° ESE 20:56:34 21° NNE
Hubble Space Telescope 3.2 20:52:50 10° NW 20:54:36 12° NNW 20:55:56 11° N
ATLAS CENTAUR R/B 3.2 20:51:06 10° WNW 20:54:42 31° SW 20:58:33 10° SSE
GEOS 3 Rocket 4.0 20:54:28 37° E 20:55:56 47° SE 21:01:01 10° SSW
Cosmos 1802 Rocket 4.3 20:53:35 10° SSW 20:59:50 67° W 21:05:56 10° N
ALOS 2.2 20:55:16 10° SSE 20:59:59 63° E 21:04:39 10° N
Cosmos 1378 4.4 20:58:21 10° NNW 21:01:56 42° W 21:05:34 10° S
COSMOS 2455 3.6 20:58:19 10° S 21:03:41 32° SE 21:03:59 32° ESE
Cosmos 2369 Rocket 4.1 21:00:38 10° SW 21:05:29 29° WNW 21:10:17 10° NNW
SJ-6B 2.9 21:06:30 10° S 21:10:30 75° WSW 21:14:20 10° NNW
FENGYUN 3A 3.5 21:05:24 10° SSE 21:10:54 72° ENE 21:16:20 10° N
Meteor 1-24 Rocket 4.1 21:05:06 10° NNW 21:11:06 72° W 21:17:14 10° S
Cosmos 1371 Rocket 3.9 21:08:40 10° SSW 21:13:58 85° ESE 21:15:13 54° NNE
FREGAT/IRIS 4.1 21:12:13 10° S 21:15:12 39° WSW 21:15:23 39° W
GP-B 3.4 21:10:42 10° S 21:15:12 69° W 21:19:18 12° NNW
NOSS 3-2 (A) 3.3 21:15:12 10° SSW 21:21:42 65° SE 21:22:26 60° E
COSMOS 2406 3.2 21:17:01 10° NNW 21:22:42 83° WSW 21:28:27 10° SSE
Resurs 01 Rocket 4.0 21:21:00 10° SSE 21:21:20 12° SSE 21:21:20 12° SSE
Cosmos 1656 Rocket 3.6 21:20:19 10° SSW 21:26:03 90° WNW 21:26:58 65° NNE
Cosmos 2221 3.1 21:21:44 10° S 21:24:56 48° S 21:24:56 48° S
Cosmos 1943 Rocket 3.5 21:23:35 10° SW 21:28:36 36° WNW 21:33:15 12° NNW
Cosmos 2233 Rocket 3.9 21:23:04 10° S 21:29:28 74° E 21:30:22 64° NE
Okean 3 Rocket 4.0 21:25:43 10° NNW 21:30:13 63° W 21:34:48 10° S
Nimbus 7 Rocket 4.3 21:32:14 70° NE 21:32:57 81° ESE 21:39:04 10° SSW
OAO 3 Rocket 4.0 21:35:30 10° WNW 21:39:14 47° NW 21:39:14 47° NW
BREEZE-M DEB (TANK) 4.2 21:39:58 10° SW 21:41:11 26° SSW 21:41:11 26° SSW
Gbstr 26 Del rocket 3.7 21:38:43 10° WNW 21:43:16 70° WSW 21:43:16 70° WSW
Cosmos 921 Rocket 4.4 21:43:00 10° SSW 21:45:54 37° SW 21:45:54 37° SW
NOSS 3-2 (C) 3.9 22:06:17 10° SW 22:11:28 56° WSW 22:11:28 56° WSW
CENTAUR R/B 3.9 22:07:48 10° SSW 22:10:53 25° S 22:10:53 25° S
Atlas Centaur 2 3.7 22:10:03 10° WNW 22:16:14 42° NNW 22:16:14 42° NNW
USA 234 4.0 22:27:10 46° WNW 22:27:10 46° WNW 22:31:40 10° WNW
